O'Neill, NE

7:17 PM CDT on July 29, 2016 (GMT -0500)
The O'Neill Municipal-Baker

Weather History for KONL - March, 2014

Change the Weather History Date:

Tuesday, March 4, 2014

  Actual Average Record
Temperature  
Mean Temperature 18 °F -  
Max Temperature 28 °F 41 °F 70 °F (1968)
Min Temperature 8 °F 18 °F -21 °F (1960)
Degree Days  
Heating Degree Days 47    
Moisture  
Dew Point 12 °F    
Average Humidity 76    
Maximum Humidity 92    
Minimum Humidity 63    
Precipitation  
Precipitation 0.01 in - - ()
Sea Level Pressure  
Sea Level Pressure 29.98 in    
Wind  
Wind Speed 5 mph (NNE)    
Max Wind Speed 14 mph    
Max Gust Speed 18 mph    
Visibility 10 miles    
Events      
Averages and records for this station are not official NWS values.
T = Trace of Precipitation, MM = Missing Value Source: NWS Daily Summary

Daily Weather History Graph

Daily Weather History Graph

Search for Another Location

Airport or City:

Trip Planner

Search our weather history database for the weather conditions in past years. The results will help you decide how hot, cold, wet, or windy it might be!

Date:

Astronomy

Mar. 04, 2014 Rise Set
Actual Time 7:05 AM CST 6:28 PM CST
Civil Twilight 6:37 AM CST 6:56 PM CST
Nautical Twilight 6:04 AM CST 7:28 PM CST
Astronomical Twilight 5:31 AM CST 8:01 PM CST
Moon 8:47 AM CST (3/4) 10:43 PM CST (3/4)
Length of Visible Light 12h 19m
Length of Day
11h 23m
Waxing Crescent, 15% of the Moon is Illuminated
Mar 4
Waxing Crescent
Mar 8
First Quarter
Mar 16
Full
Mar 23
Last Quarter
Mar 30
New

Hourly Weather History & Observations

Time (CST) Temp. Windchill Dew Point Humidity Pressure Visibility Wind Dir Wind Speed Gust Speed Precip Events Conditions
12:18 AM 17.6 °F 12.3 °F 10.4 °F 73% 29.97 in 10.0 mi SSW 3.5 mph - N/A   Clear
12:38 AM 15.8 °F 10.2 °F 10.4 °F 79% 29.97 in 10.0 mi WSW 3.5 mph - N/A   Clear
12:58 AM 17.6 °F - 10.4 °F 73% 29.96 in 10.0 mi Calm Calm - N/A   Clear
1:18 AM 15.8 °F 8.6 °F 10.4 °F 79% 29.97 in 10.0 mi WSW 4.6 mph - N/A   Clear
1:38 AM 15.8 °F 10.2 °F 10.4 °F 79% 29.97 in 10.0 mi WNW 3.5 mph - N/A   Clear
1:58 AM 14.0 °F 6.5 °F 10.4 °F 86% 29.97 in 10.0 mi West 4.6 mph - N/A   Clear
2:18 AM 15.8 °F 7.2 °F 10.4 °F 79% 29.97 in 10.0 mi NW 5.8 mph - N/A   Clear
2:38 AM 14.0 °F - 10.4 °F 86% 29.97 in 10.0 mi Calm Calm - N/A   Clear
2:58 AM 12.2 °F 6.1 °F 8.6 °F 85% 29.96 in 10.0 mi WNW 3.5 mph - N/A   Clear
3:18 AM 12.2 °F 4.3 °F 8.6 °F 85% 29.95 in 10.0 mi WNW 4.6 mph - N/A   Clear
3:38 AM 10.4 °F 2.2 °F 6.8 °F 85% 29.96 in 10.0 mi West 4.6 mph - N/A   Clear
3:58 AM 10.4 °F 0.8 °F 8.6 °F 92% 29.97 in 10.0 mi West 5.8 mph - N/A   Clear
4:23 AM 12.2 °F 2.9 °F 8.6 °F 85% 29.97 in 10.0 mi NW 5.8 mph - N/A   Clear
4:59 AM 12.2 °F 0.7 °F 8.6 °F 85% 29.95 in 10.0 mi North 8.1 mph - N/A   Clear
5:18 AM 10.4 °F -1.5 °F 6.8 °F 85% 29.95 in 10.0 mi North 8.1 mph - N/A   Clear
6:04 AM 8.6 °F - 5.0 °F 85% 29.96 in 10.0 mi Calm Calm - N/A   Clear
6:18 AM 10.4 °F 4.0 °F 6.8 °F 85% 29.95 in 10.0 mi North 3.5 mph - N/A   Clear
6:37 AM 8.6 °F - 5.0 °F 85% 29.96 in 10.0 mi Calm Calm - N/A   Clear
6:58 AM 8.6 °F - 3.2 °F 79% 29.96 in 10.0 mi Calm Calm - N/A   Clear
7:17 AM 8.6 °F - 3.2 °F 79% 29.96 in 10.0 mi Calm Calm - N/A   Clear
7:38 AM 10.4 °F - 6.8 °F 85% 29.96 in 10.0 mi Calm Calm - N/A   Clear
7:58 AM 10.4 °F 0.8 °F 6.8 °F 85% 29.96 in 10.0 mi NNE 5.8 mph - N/A   Clear
8:20 AM 12.2 °F 0.7 °F 8.6 °F 85% 29.96 in 10.0 mi NNE 8.1 mph - N/A   Clear
8:38 AM 12.2 °F -0.2 °F 6.8 °F 79% 29.96 in 10.0 mi NE 9.2 mph - N/A   Clear
8:58 AM 12.2 °F 0.7 °F 6.8 °F 79% 29.95 in 10.0 mi ENE 8.1 mph - N/A   Clear
9:18 AM 14.0 °F 6.5 °F 6.8 °F 73% 29.95 in 10.0 mi NE 4.6 mph - N/A   Clear
9:38 AM 15.8 °F 8.6 °F 8.6 °F 73% 29.95 in 10.0 mi East 4.6 mph - N/A   Clear
9:58 AM 15.8 °F 8.6 °F 8.6 °F 73% 29.96 in 10.0 mi NE 4.6 mph - N/A   Clear
10:18 AM 15.8 °F 7.2 °F 8.6 °F 73% 29.95 in 10.0 mi NNE 5.8 mph - N/A   Clear
10:38 AM 17.6 °F 9.3 °F 8.6 °F 68% 29.94 in 10.0 mi NE 5.8 mph - N/A   Scattered Clouds
10:58 AM 17.6 °F 10.7 °F 10.4 °F 73% 29.93 in 10.0 mi ENE 4.6 mph - N/A   Scattered Clouds
11:19 AM 19.4 °F 12.8 °F 10.4 °F 68% 29.93 in 10.0 mi ENE 4.6 mph - N/A   Clear
11:38 AM 19.4 °F 12.8 °F 10.4 °F 68% 29.93 in 10.0 mi ENE 4.6 mph - N/A   Clear
11:58 AM 21.2 °F 16.4 °F 12.2 °F 68% 29.94 in 10.0 mi ENE 3.5 mph - N/A   Scattered Clouds
12:18 PM 21.2 °F 13.6 °F 12.2 °F 68% 29.93 in 10.0 mi East 5.8 mph - N/A   Mostly Cloudy
12:40 PM 23.0 °F 14.7 °F 12.2 °F 63% 29.92 in 10.0 mi ENE 6.9 mph - N/A   Overcast
12:58 PM 24.8 °F 16.9 °F 14.0 °F 64% 29.92 in 10.0 mi ENE 6.9 mph - N/A   Overcast
1:18 PM 26.6 °F 18.2 °F 15.8 °F 64% 29.91 in 10.0 mi East 8.1 mph - 0.01 in   Overcast
1:38 PM 26.6 °F 19.1 °F 15.8 °F 64% 29.91 in 10.0 mi ENE 6.9 mph - 0.01 in   Scattered Clouds
1:58 PM 26.6 °F 20.0 °F 17.6 °F 69% 29.91 in 10.0 mi NE 5.8 mph - 0.01 in   Clear
2:18 PM 26.6 °F 16.8 °F 17.6 °F 69% 29.90 in 10.0 mi East 10.4 mph - N/A   Clear
2:38 PM 28.4 °F 19.7 °F 17.6 °F 64% 29.90 in 10.0 mi East 9.2 mph - N/A   Clear
2:58 PM 28.4 °F 18.5 °F 19.4 °F 69% 29.90 in 10.0 mi East 11.5 mph - N/A   Clear
3:18 PM 28.4 °F 19.7 °F 19.4 °F 69% 29.91 in 10.0 mi East 9.2 mph - N/A   Clear
3:37 PM 28.4 °F 19.7 °F 19.4 °F 69% 29.92 in 10.0 mi NE 9.2 mph - N/A   Clear
3:58 PM 28.4 °F 19.1 °F 17.6 °F 64% 29.94 in 10.0 mi North 10.4 mph - N/A   Clear
4:18 PM 26.6 °F 15.2 °F 15.8 °F 64% 29.94 in 10.0 mi NNE 13.8 mph 18.4 mph N/A   Clear
4:38 PM 24.8 °F 14.6 °F 15.8 °F 69% 29.95 in 10.0 mi NNE 10.4 mph - N/A   Clear
4:58 PM 24.8 °F 15.3 °F 15.8 °F 69% 29.95 in 10.0 mi NNE 9.2 mph - N/A   Clear
5:18 PM 24.8 °F 14.0 °F 15.8 °F 69% 29.95 in 10.0 mi NNE 11.5 mph - N/A   Clear
5:38 PM 23.0 °F 13.1 °F 15.8 °F 74% 29.95 in 10.0 mi NNE 9.2 mph - N/A   Clear
5:58 PM 23.0 °F 12.4 °F 14.0 °F 68% 29.96 in 10.0 mi NNE 10.4 mph - N/A   Clear
6:18 PM 21.2 °F 12.6 °F 14.0 °F 74% 29.97 in 10.0 mi North 6.9 mph - N/A   Clear
6:38 PM 21.2 °F 11.7 °F 12.2 °F 68% 29.98 in 10.0 mi NNE 8.1 mph - N/A   Clear
6:58 PM 19.4 °F 8.6 °F 12.2 °F 74% 30.00 in 10.0 mi North 9.2 mph - N/A   Clear
7:18 PM 19.4 °F 9.5 °F 12.2 °F 74% 30.01 in 10.0 mi North 8.1 mph - N/A   Clear
7:38 PM 19.4 °F 9.5 °F 12.2 °F 74% 30.02 in 10.0 mi North 8.1 mph - N/A   Scattered Clouds
7:58 PM 17.6 °F 8.2 °F 12.2 °F 79% 30.03 in 10.0 mi North 6.9 mph - N/A   Scattered Clouds
8:18 PM 17.6 °F 9.3 °F 12.2 °F 79% 30.04 in 10.0 mi North 5.8 mph - N/A   Clear
8:38 PM 17.6 °F 8.2 °F 12.2 °F 79% 30.05 in 10.0 mi North 6.9 mph - N/A   Mostly Cloudy
8:58 PM 17.6 °F 9.3 °F 12.2 °F 79% 30.06 in 10.0 mi North 5.8 mph - N/A   Overcast
9:18 PM 17.6 °F 8.2 °F 12.2 °F 79% 30.07 in 10.0 mi North 6.9 mph - N/A   Overcast
9:38 PM 17.6 °F 9.3 °F 12.2 °F 79% 30.09 in 10.0 mi North 5.8 mph - N/A   Overcast
9:58 PM 17.6 °F 9.3 °F 12.2 °F 79% 30.10 in 10.0 mi North 5.8 mph - N/A   Overcast
10:18 PM 19.4 °F 10.4 °F 14.0 °F 80% 30.10 in 10.0 mi North 6.9 mph - N/A   Overcast
10:38 PM 19.4 °F 11.5 °F 14.0 °F 80% 30.10 in 10.0 mi North 5.8 mph - N/A   Overcast
10:58 PM 19.4 °F 11.5 °F 14.0 °F 80% 30.11 in 10.0 mi North 5.8 mph - N/A   Overcast
11:18 PM 19.4 °F 10.4 °F 14.0 °F 80% 30.12 in 10.0 mi North 6.9 mph - N/A   Overcast
11:38 PM 19.4 °F 9.5 °F 14.0 °F 80% 30.13 in 10.0 mi North 8.1 mph - N/A   Overcast
11:58 PM 19.4 °F 11.5 °F 14.0 °F 80% 30.15 in 10.0 mi North 5.8 mph - N/A   Overcast